Weather Roundup
Issued by NWS

Home | Current Version | Previous Version | Graphics & Text | Print | Product List | Glossary Off
Versions: 1 2 3 4 5 6 7 8 9 10 11 12 13 14 15 16 17 18 19 20 21 22 23 24 25 26 27 28 29 30 31 32 33 34 35 36 37 38 39 40 41 42 43 44 45 46 47 48 49 50

000
NZUS93 KARX 072310
HRRWXR

CURRENT HOURLY OBSERVATIONS ACROSS
MUCH OF THE UPPER MISSISSIPPI VALLEY
NATIONAL WEATHER SERVICE LA CROSSE WI
600 PM CDT TUE JUL 07 2015


...SOUTHEAST MINNESOTA...


CITY           SKY/WX    TMP DP  RH WIND       PRES   REMARKS
ROCHESTER      MOSUNNY   67  49  52 NE12      30.12S
ROCHESTER/MAYO FAIR      67  47  47 NE6       30.11F
WINONA         MOSUNNY   70  48  46 NE8       30.10F
AUSTIN         MOSUNNY   70  48  46 NE7       30.11F
ALBERT LEA     MOSUNNY   66  48  52 NE10      30.12S
DODGE CENTER   SUNNY     66  50  55 NE7       30.12S
PRESTON        SUNNY     65  49  56 NE8       30.12S
OWATONNA       SUNNY     66  48  52 NE6       30.12F
FARIBAULT      SUNNY     68  50  52 VRB9      30.13F
$$

...ELSEWHERE IN MINNESOTA...


CITY           SKY/WX    TMP DP  RH WIND       PRES   REMARKS
MINNEAPOLIS    PTSUNNY   72  47  40 NW5       30.11F
INTNL FALLS    SUNNY     72  46  39 VRB5      30.06F
DULUTH         MOSUNNY   72  44  36 N6        30.09F
RED WING       MOSUNNY   70  45  40 CALM      30.10S
REDWOOD FALLS  SUNNY     70  49  47 N6        30.12F
MANKATO        SUNNY     68  46  45 NE8       30.12F
WORTHINGTON    SUNNY     66  48  52 NE9       30.13F
FAIRMONT       SUNNY     66  46  48 NE8       30.12F
$$

...SOUTHWEST WISCONSIN...


CITY           SKY/WX    TMP DP  RH WIND       PRES   REMARKS
LA CROSSE      MOSUNNY   71  49  45 N9        30.09S
PRAIRIE DU CHI CLOUDY    68  46  45 N3        30.09S
BOSCOBEL       MOSUNNY   68  49  50 NE6       30.09S
LONE ROCK      PTSUNNY   70  49  47 N8        30.09S
PLATTEVILLE    PTSUNNY   68  51  54 N10       30.09S
FORT MC COY    MOSUNNY   71  46  40 N9        30.09F
CAMP DOUGLAS   PTSUNNY   70  52  52 E6        30.07F
VIROQUA        FAIR      67  49  52 N7        30.10S
WIS DELLS      PTSUNNY   66  46  47 NE8       30.08F
$$

...ELSEWHERE IN WISCONSIN...


CITY           SKY/WX    TMP DP  RH WIND       PRES   REMARKS
MILWAUKEE      MOSUNNY   61  48  62 NE8       30.08S
MADISON        PTSUNNY   67  49  52 NE9       30.07S
GREEN BAY      MOSUNNY   69  48  47 N10       30.07R
EAU CLAIRE     SUNNY     71  46  40 N5        30.09F
BLACK RVR FLS  FAIR      72  46  39 NW6       30.08F
MEDFORD        SUNNY     67  46  46 N6        30.10F
WAUSAU         PTSUNNY   70  45  40 N8        30.08S
WIS RAPIDS     MOSUNNY   71  45  39 NE7       30.09F
MARSHFIELD     PTSUNNY   71  46  40 VRB7      30.09S
RICE LAKE      SUNNY     69  45  42 NW3       30.13S
$$

...NORTHEAST IOWA...


CITY           SKY/WX    TMP DP  RH WIND       PRES   REMARKS
DECORAH          N/A    N/A N/A N/A MISG        N/A
MASON CITY     MOSUNNY   68  50  52 N8        30.12F
CHARLES CITY   MOSUNNY   66  52  59 VRB6      30.11F
OELWEIN        MOSUNNY   66  50  55 N5G12     30.11
$$

...ELSEWHERE IN IOWA...


CITY           SKY/WX    TMP DP  RH WIND       PRES   REMARKS
DES MOINES     PTSUNNY   73  50  44 N6        30.08S
IOWA CITY      PTSUNNY   70  54  56 N7        30.07F
FORT DODGE     MOSUNNY   68  50  52 NE7       30.11F
$$

...NORTHERN ILLINOIS...


CITY           SKY/WX    TMP DP  RH WIND       PRES   REMARKS
CHICAGO-OHARE  MOSUNNY   63  47  55 NE14      30.06S
CHICAGO-MIDWAY MOSUNNY   65  47  52 NE18      30.06S
MOLINE         MOSUNNY   73  54  51 NE8       30.04F HAZE
ROCKFORD       PTSUNNY   70  51  51 N10       30.07S
PEORIA         PTSUNNY   75  59  57 NE8       30.03S HAZE
$$

NOTE: "FAIR" INDICATES FEW OR NO CLOUDS BELOW 12,000 FEET WITH NO
SIGNIFICANT WEATHER AND/OR OBSTRUCTIONS TO VISIBILITY. WIND
SPEEDS ARE IN MILES-PER-HOUR.



USA.gov is the U.S. government's official web portal to all federal, state and local government web resources and services.